Theta_e
310 315 313 309 309 309 311 312 312 311 307 306 311 310 309 309 309 309 309 309 307 306 305 303 303 303 303 303 302 302 302 302 304 309 312 312 311 308 307 306 304 301 300 301
315 311 307 307 308 309 310 312 312 310 307 305 306 305 309 305 304 304 304 305 305 305 304 303 303 302 302 301 301 302 302 302 304 305 309 307 306 305 305 304 303 301 300 301
312 307 305 306 307 310 308 308 307 306 305 306 304 309 306 303 303 303 302 302 303 303 303 303 302 301 301 300 301 301 302 303 304 305 308 310 308 305 305 304 303 302 301 301
307 305 306 307 305 305 311 303 303 305 307 310 303 315 307 305 305 303 302 302 301 302 302 302 301 300 300 300 300 300 301 303 304 306 307 306 305 304 304 303 304 303 302 301
305 304 305 305 302 302 306 302 303 303 306 305 306 311 308 304 304 303 301 301 301 300 300 300 300 299 300 299 299 299 300 301 303 304 305 304 304 303 303 303 303 302 301 301
303 301 301 301 302 302 301 301 301 303 308 317 299 304 309 304 302 301 300 299 299 299 299 300 300 300 299 299 299 298 298 299 300 302 303 303 303 303 302 302 302 302 301 301
304 303 301 299 305 303 303 309 324 323 319 314 295 301 308 302 300 299 299 298 298 297 297 297 298 298 297 297 297 298 298 298 298 300 302 302 302 302 302 302 302 301 301 300
309 317 304 299 301 302 301 304 311 308 308 307 294 307 306 300 299 298 297 297 296 296 296 295 295 295 295 295 295 295 295 296 297 297 298 301 302 302 301 301 301 300 298 297
308 308 299 297 298 299 303 310 298 302 292 303 306 307 302 300 299 297 296 295 294 294 294 293 292 292 292 292 292 293 293 294 295 296 296 296 298 300 300 299 298 296 294 292
301 309 299 298 297 297 301 298 308 307 308 307 309 306 306 303 300 296 294 294 293 292 292 291 291 291 291 291 292 292 292 293 293 294 295 295 294 295 295 294 292 291 290 290
300 303 305 297 302 306 301 304 301 302 302 306 304 305 302 300 295 294 293 293 291 291 290 290 290 290 290 290 290 291 292 293 293 293 293 294 293 292 291 291 290 289 289 289
300 301 306 312 297 297 298 303 302 304 304 301 300 302 299 295 294 293 292 291 290 290 289 289 289 288 288 289 289 290 292 292 292 293 292 292 292 291 290 289 289 289 289 288
300 306 307 310 298 296 298 299 299 298 298 301 302 303 294 296 294 292 291 290 289 289 288 288 287 287 287 287 287 288 289 290 291 292 291 291 291 291 289 289 288 288 288 287
298 300 305 305 306 299 300 299 299 299 302 301 303 304 300 297 292 290 289 289 290 288 286 286 286 286 287 287 287 287 287 288 290 290 291 291 290 291 290 288 287 287 287 286
299 302 299 299 299 296 297 297 299 298 298 300 299 300 300 293 290 288 288 290 288 286 286 286 286 286 286 286 286 286 286 286 286 288 289 290 292 290 288 287 286 286 287 290
298 300 293 297 295 294 294 295 296 296 297 297 297 296 289 288 288 288 288 288 286 286 285 285 285 284 284 284 285 285 285 285 285 286 287 288 288 289 289 287 286 288 287 285
298 299 298 300 292 292 299 298 297 296 295 295 294 293 289 288 287 286 287 287 286 285 284 285 284 283 283 283 282 282 283 283 284 285 286 288 288 287 288 286 286 286 287 286
294 296 297 300 295 301 300 292 293 295 293 290 290 289 287 287 286 286 288 286 285 284 284 284 283 283 283 283 283 283 283 283 283 283 285 287 286 286 287 286 286 287 287 286
295 297 299 298 300 300 299 292 294 293 294 289 289 288 287 286 286 289 288 285 284 283 283 282 283 283 283 283 283 282 282 282 283 284 284 285 286 287 287 286 286 286 286 286
292 294 297 293 297 300 294 292 291 292 294 287 286 286 286 285 286 287 285 283 283 282 282 282 282 282 282 282 282 282 282 282 282 283 283 283 284 285 285 287 286 286 285 283
294 294 296 298 298 298 292 290 290 294 292 286 285 285 285 285 284 283 282 282 282 281 282 282 282 282 282 282 281 281 281 281 281 281 281 282 283 284 284 286 285 284 282 282
296 297 296 295 297 297 289 289 293 287 286 285 284 283 283 283 282 282 282 281 281 281 281 281 281 281 281 281 280 280 280 280 280 281 280 281 283 283 283 285 284 283 282 282
294 297 300 297 298 288 286 286 284 284 284 283 283 282 282 282 281 281 281 281 281 281 281 281 281 280 281 280 280 279 279 279 280 282 282 281 282 283 284 285 283 283 282 282
291 289 292 292 290 287 285 284 284 283 283 282 282 282 281 281 281 281 280 280 280 280 280 280 280 280 280 280 280 279 279 279 279 280 282 282 281 282 284 283 283 282 282 282
292 289 292 291 287 286 284 285 284 282 282 281 281 281 281 281 280 280 280 280 280 280 280 280 279 279 279 279 280 279 279 279 279 279 280 281 281 280 281 283 282 282 281 281
289 291 291 292 285 285 285 283 282 282 281 280 280 281 280 280 279 279 279 279 278 279 279 279 279 278 278 278 279 279 279 278 278 279 279 279 279 280 280 280 280 280 280 281
Wind_Speed
7 9 9 10 8 5 6 6 8 6 6 11 9 16 17 14 9 11 10 8 5 5 4 7 10 12 13 15 16 17 17 17 19 21 22 22 21 20 20 20 21 21 21 20
5 8 8 5 6 4 6 4 6 2 3 7 10 19 7 12 10 10 11 10 7 5 5 6 9 11 14 15 16 16 15 14 15 18 17 15 13 14 16 19 21 21 22 21
8 5 6 3 9 5 7 5 6 5 13 5 14 6 8 10 16 15 17 13 10 7 6 7 10 12 15 17 17 17 16 14 14 16 18 21 21 21 20 21 21 21 21 22
6 5 5 4 5 7 1 5 5 7 8 3 9 0 7 10 12 18 18 19 18 12 9 10 12 15 18 19 19 18 17 16 14 15 17 18 17 14 14 14 20 21 21 21
3 6 7 5 3 5 3 5 4 3 3 4 3 2 6 9 11 14 19 20 19 16 11 11 13 16 18 20 21 21 20 18 17 16 17 19 20 19 16 20 21 21 22 22
4 2 4 5 5 3 7 4 3 2 1 1 2 4 2 4 6 10 17 20 20 18 16 14 14 15 16 20 22 23 22 21 19 19 19 20 21 20 21 21 22 21 22 23
0 3 2 5 4 2 7 3 3 2 2 2 1 4 4 5 8 12 15 18 18 18 18 19 19 19 22 25 28 28 28 27 26 23 22 23 24 24 24 22 23 21 22 22
3 2 3 8 4 3 4 2 2 5 4 6 2 5 2 8 13 12 15 15 17 19 19 20 21 23 25 27 28 29 30 31 30 29 28 27 27 27 27 26 25 24 23 22
4 1 3 4 2 2 2 0 2 2 1 3 3 4 8 8 6 15 18 18 19 19 20 23 27 30 33 33 34 33 33 32 32 33 32 31 30 30 30 29 27 25 24 22
2 4 1 1 1 4 1 2 1 2 3 5 4 4 7 6 2 9 17 16 19 18 22 29 31 32 35 36 37 37 36 36 35 33 35 34 32 30 29 28 27 24 23 21
2 0 1 1 4 3 2 1 1 2 2 4 5 3 1 7 4 5 8 13 21 24 29 34 36 37 36 36 38 37 37 37 38 39 37 36 35 33 31 30 28 26 23 21
2 2 5 1 3 2 1 2 4 3 2 3 4 8 5 7 3 4 15 22 19 22 31 35 37 36 35 34 36 38 37 35 36 38 38 39 38 35 34 32 29 27 24 22
1 1 5 3 2 2 3 4 4 1 2 9 7 5 4 4 8 11 15 21 19 27 35 38 39 40 40 41 43 44 43 42 41 37 33 37 40 38 36 34 30 27 24 21
0 3 5 7 3 3 5 7 9 7 5 9 14 15 6 7 9 18 24 22 18 23 32 38 42 44 42 39 39 42 42 41 42 41 36 35 39 39 37 34 30 27 23 19
2 5 3 11 7 4 8 14 11 13 14 9 18 12 6 6 8 16 23 16 20 28 30 38 43 44 43 44 45 44 45 45 44 43 41 38 35 39 35 33 30 25 21 28
1 2 2 5 4 7 12 22 14 14 16 16 19 20 6 9 12 16 21 17 19 26 40 44 43 43 44 46 48 49 50 48 45 43 44 40 38 38 35 33 31 30 30 25
2 1 2 5 5 10 8 7 8 4 5 4 5 4 10 8 15 23 20 18 23 39 40 38 39 42 45 46 50 51 48 51 52 45 43 44 41 36 33 33 29 27 28 28
4 3 2 4 3 5 1 2 3 4 3 2 4 5 9 11 17 25 16 18 31 35 36 36 38 41 41 42 44 42 46 47 46 47 42 40 38 34 28 31 33 35 31 30
7 3 3 4 4 8 7 3 1 2 2 1 4 7 12 17 22 19 19 29 31 33 33 35 37 38 41 42 39 41 43 44 42 40 40 37 37 35 35 29 32 32 29 30
3 3 4 1 5 8 3 4 3 1 6 3 5 11 17 21 11 15 29 30 30 32 33 35 35 37 41 39 40 40 39 40 39 38 37 39 38 36 35 35 31 31 30 27
3 4 9 9 7 8 4 0 1 3 2 4 8 13 18 15 20 32 32 32 32 33 35 36 36 38 39 38 39 38 39 41 39 36 37 36 35 36 36 29 25 25 25 25
7 7 6 3 5 9 2 2 4 3 3 8 12 16 21 23 28 30 31 32 35 34 36 38 38 39 43 41 36 37 42 41 39 38 38 37 36 33 30 22 22 24 25 25
4 5 2 8 4 3 3 6 3 4 7 11 15 19 22 27 30 32 33 38 38 39 38 37 37 40 41 39 37 39 41 40 40 39 39 37 34 29 24 19 21 25 26 26
5 4 4 2 4 5 5 2 3 6 10 14 17 21 24 29 31 37 36 40 40 40 39 38 39 38 40 38 38 38 39 40 38 37 37 35 33 31 23 22 23 26 29 28
1 6 3 5 2 3 8 6 8 11 16 22 26 29 29 32 39 38 35 39 37 36 37 38 37 37 40 40 40 37 38 38 38 38 35 33 32 30 30 26 23 25 27 28
8 3 3 3 5 1 1 5 13 16 22 27 31 35 33 32 35 35 35 36 34 35 38 38 36 35 41 41 40 38 37 37 36 37 36 35 33 32 28 26 25 22 24 26
Wind_Direction
36 58 42 20 19 8 342 343 340 14 20 328 300 306 313 326 335 333 304 287 293 296 281 303 305 307 309 310 309 304 294 280 268 262 257 257 262 266 266 270 268 266 266 267
74 60 14 356 8 353 3 345 2 294 324 316 324 310 47 37 34 28 21 16 358 314 312 323 322 321 319 320 320 317 309 295 271 261 254 248 253 251 264 270 273 269 267 266
66 23 340 345 28 359 44 21 357 319 315 244 323 112 96 74 73 61 43 30 14 357 336 329 328 329 327 329 330 328 323 311 286 267 257 256 257 263 270 271 273 272 268 266
64 12 10 35 66 355 296 2 319 319 338 320 13 235 131 111 77 49 37 28 20 6 349 341 335 333 334 334 335 333 330 321 305 284 269 261 261 267 272 261 273 275 270 265
44 10 17 47 11 346 7 330 318 326 303 317 29 268 106 157 61 44 39 33 24 13 0 344 336 337 339 338 337 335 332 326 314 296 278 266 264 262 260 268 272 272 270 265
81 44 27 350 315 318 326 307 287 242 190 255 52 356 54 39 22 50 35 24 18 12 9 360 345 340 339 336 336 333 329 324 316 303 289 276 267 264 265 269 270 269 268 266
177 53 31 4 310 193 353 318 330 271 270 302 13 272 344 46 69 57 26 15 13 10 10 3 357 349 345 341 337 333 328 323 315 305 293 282 274 268 266 266 267 263 265 263
18 251 14 355 33 338 14 17 19 297 291 326 178 237 132 96 108 58 33 22 15 12 12 13 11 4 355 349 343 335 327 320 314 307 298 288 281 276 272 268 267 266 262 260
341 255 111 42 352 329 54 93 41 110 118 256 260 249 124 121 79 20 22 22 19 15 18 16 11 3 357 353 349 340 332 323 314 306 298 291 283 277 273 271 267 264 261 260
63 290 93 136 261 58 324 91 204 176 283 276 210 258 280 184 69 3 17 15 9 15 15 7 2 358 356 352 348 342 334 323 318 305 295 288 282 276 271 267 264 261 260 261
107 302 189 173 195 156 149 192 217 315 253 275 298 245 359 108 59 356 347 4 14 13 6 0 355 353 350 348 345 340 334 325 317 310 299 285 278 272 267 263 260 259 260 263
59 312 275 256 115 356 278 264 227 250 230 247 300 275 87 104 70 10 5 5 2 359 357 356 354 351 347 344 340 339 336 329 323 310 296 285 276 269 265 262 258 257 259 261
65 241 302 221 165 163 225 206 212 0 299 241 258 263 181 64 46 19 0 353 353 354 353 352 352 350 349 346 343 339 335 332 330 325 290 279 273 269 266 262 258 256 257 259
230 267 243 264 343 347 255 226 218 208 253 271 241 269 236 346 5 356 348 350 352 347 348 349 349 346 342 337 333 331 332 328 324 327 318 285 272 275 270 264 259 257 257 262
250 257 278 273 274 245 260 263 229 214 238 255 273 280 311 11 343 331 334 335 341 344 341 344 341 336 333 331 328 326 323 328 328 319 316 308 291 277 272 270 263 259 266 285
191 283 9 278 319 288 269 268 259 234 252 259 271 282 31 334 332 331 329 327 329 335 340 338 332 329 327 325 322 320 317 318 323 325 314 309 301 289 279 267 266 272 271 269
230 281 330 269 356 319 269 266 228 188 196 223 235 21 357 340 334 326 316 322 327 332 325 323 323 325 324 323 326 327 324 321 316 318 316 306 301 293 281 266 263 268 274 274
157 170 209 280 318 258 17 109 336 235 237 217 311 354 343 325 319 321 325 330 327 322 323 320 318 319 321 319 320 322 322 319 319 316 314 317 311 303 286 265 264 267 269 271
216 208 248 266 244 293 265 119 36 307 157 67 319 329 330 329 322 318 332 325 317 317 317 316 317 318 317 318 322 322 321 326 320 318 315 314 313 302 286 281 275 271 271 270
202 309 241 151 261 291 80 102 30 323 251 57 345 328 330 332 316 315 321 318 315 315 315 316 317 316 319 321 322 323 323 326 322 318 311 308 301 305 302 276 284 267 262 262
165 208 231 237 261 276 88 296 179 241 7 356 332 322 319 312 300 305 314 316 313 313 316 319 316 319 320 319 328 325 323 325 326 316 312 309 308 311 306 283 271 264 260 262
186 186 208 207 249 270 117 150 224 36 354 331 325 318 311 306 306 309 312 312 313 313 317 320 321 322 324 330 332 328 327 330 327 324 322 321 316 313 312 293 280 267 266 265
248 222 258 204 230 126 72 104 83 356 324 321 314 313 310 307 308 308 312 315 316 317 316 321 320 321 325 330 335 331 332 331 326 327 327 329 323 321 321 296 280 271 270 268
223 189 234 352 141 183 164 131 338 318 309 310 311 309 310 308 310 311 314 316 316 315 315 320 323 320 323 327 329 330 332 330 328 324 327 330 329 325 314 298 281 271 270 271
337 158 217 253 186 172 215 262 315 308 309 315 318 317 313 313 314 314 310 310 312 310 315 321 319 319 323 325 324 327 331 330 329 328 328 328 328 322 320 304 287 275 270 272
195 219 220 299 118 232 249 298 305 308 316 319 320 317 317 314 313 316 312 315 309 312 317 320 321 319 320 321 320 325 327 327 326 325 326 326 324 323 317 313 300 283 276 276